ONEWEB-0199 (48234 NORAD) Tracking and Keplerian Element Data

This shows tracking and keplerian element data for the satellite.

Feedback or suggestion? Click here.




ElementValue
Catalog48234
NameONEWEB-0199
Epoch Orbit177
Epoch Day136.75001157
Epoch Year2021
RAAN305.7712
Inclination87.4182
Eccentricity0.0007256
Argument of Perigee164.086
Mean Anonmoly6.4841
Mean Motion15.30123445
Decay Rate-0.01408641
L11 48234U 21031AA 21136.75001157 -.01408641 00000-0 -53303-1 0 9998
L22 48234 87.4182 305.7712 0007256 164.0860 6.4841 15.30123445 1779

Live tracking and technical data element details for ONEWEB-0199 (NORAD 48234). ONEWEB-0199 can be tracked NOW for your location showing map with azimuth and elevation plus other details from your city location.

Track the satellite on the map from your city or location and see movement details for azimuth, elevation, latitude, longitude, range, height, and movement on the map or in text.







IsCatalogInMostPopularTable: catalog: 48234, numindb: 4
Update: records affected: 1



GetName: 48234 ONEWEB-0199

Hit Count: updated at: Mon, 17 May 2021 15:19:26 GMT